Location: Ward Pound Ridge Reservation
(41.2500°N, 73.6000°W)
Time: 13:21:57
(UTC-04:00)

Vanguard 1 Rocket - All Passes

Search period start: 23 October 2017 00:00
Search period end: 02 November 2017 00:00
Orbit: 655 x 4222 km, 34.3° (Epoch: 22 October)

Date Brightness Start Highest point End Pass type
(mag) Time Alt. Az. Time Alt. Az. Time Alt. Az.
23 Oct - 03:27:59 10° SSE 03:28:20 10° SSE 03:28:43 10° SSE visible
23 Oct - 05:46:06 10° SSW 05:55:21 27° SSE 06:01:08 10° ESE visible
23 Oct - 08:13:28 10° WSW 08:20:47 41° S 08:25:27 10° ESE daylight
23 Oct - 10:40:39 10° WSW 10:45:08 30° SSW 10:49:01 10° SE daylight
24 Oct - 04:34:06 10° SSW 04:43:42 22° SSE 04:50:03 10° ESE visible
24 Oct - 07:00:46 10° SW 07:09:52 39° S 07:15:15 10° ESE daylight
24 Oct - 09:28:47 10° WSW 09:34:41 40° S 09:38:56 10° ESE daylight
24 Oct - 11:55:59 10° WSW 11:58:42 16° SSW 12:01:25 10° SSE daylight
25 Oct - 03:23:13 10° S 03:31:37 16° SSE 03:37:49 10° ESE visible
25 Oct - 05:47:48 10° SW 05:58:37 34° SSE 06:04:55 10° ESE visible
25 Oct - 08:16:19 10° WSW 08:24:03 45° S 08:28:51 10° ESE daylight
25 Oct - 10:44:01 10° WSW 10:48:18 25° SSW 10:51:59 10° SE daylight
26 Oct - 02:16:29 10° SSE 02:19:08 10° SSE 02:21:34 10° SE visible
26 Oct - 04:34:57 10° SSW 04:46:57 29° SSE 04:54:12 10° ESE visible
26 Oct - 07:03:16 10° WSW 07:13:09 45° S 07:18:45 10° ESE daylight
26 Oct - 09:31:54 10° W 09:37:54 37° SSW 09:42:09 10° SE daylight
26 Oct - 12:00:44 10° SW 12:01:46 11° SSW 12:02:48 10° SSW daylight
27 Oct - 03:22:46 10° SSW 03:34:50 23° SSE 03:42:47 10° ESE visible
27 Oct - 05:49:49 10° SW 06:01:52 41° SSE 06:08:31 10° E visible
27 Oct - 08:19:14 10° WSW 08:27:17 47° S 08:32:12 10° ESE daylight
27 Oct - 10:47:31 10° WSW 10:51:25 20° SSW 10:54:44 10° SSE daylight
28 Oct - 02:12:09 10° S 02:22:18 17° SSE 02:29:55 10° ESE visible
28 Oct - 04:36:18 10° SW 04:50:10 36° SSE 04:58:00 10° E visible
28 Oct - 07:05:54 10° WSW 07:16:23 50° S 07:22:10 10° ESE daylight
28 Oct - 09:35:04 10° W 09:41:03 33° SSW 09:45:16 10° SE daylight
29 Oct - 01:07:49 10° SSE 01:09:26 10° SE 01:10:58 10° SE visible
29 Oct - 03:23:13 10° SSW 03:38:00 30° SSE 03:46:59 10° E visible
29 Oct - 05:52:03 10° WSW 06:05:05 48° S 06:12:00 10° E visible
29 Oct - 08:22:11 10° W 08:30:30 46° SSW 08:35:30 10° ESE daylight
29 Oct - 10:51:17 10° WSW 10:54:24 15° SSW 10:57:08 10° S daylight
30 Oct - 02:11:12 10° SSW 02:25:23 23° SSE 02:35:02 10° ESE visible
30 Oct - 04:38:00 10° SW 04:53:20 44° SSE 05:01:37 10° E visible
30 Oct - 07:08:38 10° WSW 07:19:36 53° S 07:25:33 10° ESE daylight
30 Oct - 09:38:18 10° W 09:44:08 28° SSW 09:48:17 10° SE daylight
31 Oct - 01:01:24 10° S 01:12:28 16° SE 01:21:09 10° ESE visible
31 Oct - 03:24:13 10° SW 03:41:06 37° SSE 03:50:48 10° E visible
31 Oct - 05:54:27 10° WSW 06:08:16 54° S 06:15:26 10° E visible
31 Oct - 08:25:11 10° W 08:33:39 43° SSW 08:38:44 10° SE daylight
31 Oct - 10:55:53 10° SW 10:57:18 11° SW 10:58:39 10° SSW daylight
01 Nov - 02:11:17 10° SSW 02:28:24 30° SSE 02:39:19 10° E visible
01 Nov - 04:39:57 10° SW 04:56:28 51° SSE 05:05:06 10° E visible
01 Nov - 07:11:25 10° W 07:22:47 54° S 07:28:53 10° ESE daylight
01 Nov - 09:41:39 10° W 09:47:06 23° SSW 09:51:05 10° SSE daylight
